{"data":{"norad_id":20026,"epoch":"2026-05-23T20:49:29.525376Z","epoch_age_seconds":176121,"freshness":"STALE","line1":"1 20026U 89039C   26143.86770284 -.00000043  00000+0  00000+0 0  9993","line2":"2 20026  64.9506 311.3730 0020621 212.6135 323.9566  2.13204562287984","mean_motion":2.13204562,"eccentricity":0.0020621,"inclination_deg":64.9506,"raan_deg":311.373,"arg_perigee_deg":212.6135,"mean_anomaly_deg":323.9566,"bstar":0,"rev_number":28798,"period_min":675.4076866329,"perigee_km":19069.123125466,"apogee_km":19174.28957942,"semimajor_km":25499.843352443,"source":"CELESTRAK","updated_at":"2026-05-25T13:38:24.772070Z"}}